Weather History for Big Piney, WY

Change the Weather History Date:

Monday, January 7, 2013

  Actual Average Record
Temperature  
Mean Temperature 5 °F 11 °F  
Max Temperature 22 °F 26 °F 42 °F (2009)
Min Temperature -13 °F -4 °F -20 °F (2010)
Degree Days  
Heating Degree Days 60 54  
Month to date heating degree days 448 378  
Since 1 July heating degree days 4170 4817  
Cooling Degree Days 0 0  
Month to date cooling degree days 0 0  
Year to date cooling degree days 0 0  
Moisture  
Dew Point -2 °F    
Average Humidity 72    
Maximum Humidity 87    
Minimum Humidity 56    
Precipitation  
Precipitation 0.00 in 0.01 in 0.14 in (2011)
Month to date precipitation 0.00 0.07  
Year to date precipitation 0.00 0.07  
Sea Level Pressure  
Sea Level Pressure 30.28 in    
Wind  
Wind Speed 4 mph (NNE)    
Max Wind Speed 21 mph    
Max Gust Speed 24 mph    
Visibility 10 miles    
Events      
T = Trace of Precipitation, MM = Missing Value Source: NWS Daily Summary

Daily Weather History Graph

Daily Weather History Graph

Search for Another Location

Airport:

Trip Planner

Search our weather history database for the weather conditions in past years. The results will help you decide how hot, cold, wet, or windy it might be!

Date:

Astronomy

Jan. 07, 2013 Rise Set
Actual Time 7:50 AM MST 5:03 PM MST
Civil Twilight 7:18 AM MST 5:35 PM MST
Nautical Twilight 6:43 AM MST 6:10 PM MST
Astronomical Twilight 6:09 AM MST 6:44 PM MST
Moon 3:16 AM MST (1/7) 1:18 PM MST (1/7)
Length of Visible Light 10h 17m
Length of Day
9h 13m
Waning Crescent, 22% of the Moon is Illuminated
Jan 7
Waning Crescent
Jan 11
New
Jan 18
First Quarter
Jan 26
Full
Feb 3
Last Quarter

Hourly Weather History & Observations

Time (MST) Temp. Windchill Dew Point Humidity Pressure Visibility Wind Dir Wind Speed Gust Speed Precip Events Conditions
12:53 AM -2.0 °F - -5.1 °F 87% 30.30 in 10.0 mi Calm Calm - N/A   Clear
1:53 AM -9.0 °F -20.4 °F -13.0 °F 83% 30.33 in 10.0 mi East 4.6 mph - N/A   Clear
2:53 AM -9.0 °F -23.8 °F -13.0 °F 83% 30.33 in 10.0 mi ENE 6.9 mph - N/A   Clear
3:53 AM -9.9 °F -23.4 °F -14.1 °F 82% 30.32 in 10.0 mi NW 5.8 mph - N/A   Clear
4:53 AM -11.9 °F -27.3 °F -17.0 °F 78% 30.33 in 10.0 mi ENE 6.9 mph - N/A   Clear
5:53 AM -9.9 °F -26.3 °F -14.1 °F 82% 30.34 in 10.0 mi East 8.1 mph - N/A   Clear
6:53 AM -11.9 °F - -17.0 °F 78% 30.40 in 10.0 mi Calm Calm - N/A   Clear
7:53 AM -9.9 °F -19.2 °F -14.1 °F 82% 30.42 in 10.0 mi NNW 3.5 mph - N/A   Clear
8:53 AM -4.0 °F - -8.0 °F 83% 30.41 in 10.0 mi Calm Calm - N/A   Clear
9:53 AM -0.9 °F -8.9 °F -6.0 °F 79% 30.43 in 10.0 mi East 3.5 mph - N/A   Clear
10:53 AM 7.0 °F - -0.0 °F 73% 30.35 in 10.0 mi Calm Calm - N/A   Clear
11:53 AM 10.9 °F - 1.0 °F 64% 30.32 in 10.0 mi Calm Calm - N/A   Clear
12:53 PM 12.9 °F 6.9 °F 1.9 °F 62% 30.28 in 10.0 mi East 3.5 mph - N/A   Clear
1:53 PM 16.0 °F - 3.0 °F 57% 30.27 in 10.0 mi Calm Calm - N/A   Clear
2:53 PM 16.0 °F - 5.0 °F 62% 30.26 in 10.0 mi Calm Calm - N/A   Clear
3:53 PM 19.0 °F - 6.1 °F 57% 30.24 in 10.0 mi Calm Calm - N/A   Clear
4:53 PM 12.9 °F 6.9 °F 3.0 °F 65% 30.26 in 10.0 mi South 3.5 mph - N/A   Clear
5:53 PM 7.0 °F - 1.0 °F 77% 30.27 in 10.0 mi Calm Calm - N/A   Partly Cloudy
6:53 PM 8.1 °F -2.0 °F 1.0 °F 73% 30.29 in 10.0 mi NNW 5.8 mph - N/A   Clear
7:53 PM 3.9 °F -6.9 °F -0.9 °F 80% 30.29 in 10.0 mi NNW 5.8 mph - N/A   Clear
8:53 PM 10.0 °F 3.6 °F 3.9 °F 76% 30.22 in 10.0 mi NNW 3.5 mph - N/A   Clear
9:53 PM 19.0 °F 5.6 °F 12.9 °F 77% 30.15 in 10.0 mi North 13.8 mph - N/A   Clear
10:53 PM 17.1 °F 8.7 °F 12.0 °F 81% 30.11 in 10.0 mi Variable 5.8 mph 16.1 mph N/A   Clear
11:25 PM 21.2 °F 7.8 °F 14.0 °F 74% 29.94 in 10.0 mi North 15.0 mph - N/A   Clear
11:53 PM 10.9 °F -4.1 °F 7.0 °F 84% 30.13 in 10.0 mi SSW 12.7 mph - N/A   Clear